COSMOS 1275 DEB, 12648

Orbit data source: Space-Track

COSMOS 1275 DEB, 12648 is space debris in LEO originally from a launch on Thu, 04 Jun 1981 UTC launched from the Plesetsk Missile And Space Complex (PKMTR). Debris objects in space refer to the collection of defunct objects orbiting the Earth. Examples of debris include non-operational satellites, rocket bodies, and fragments generated from explosions, collisions, or faulty payload assembly.

Loading next visibility...
Identifier
12648, 1981-053C
Orbit
LEO
Country
Flag of CISCIS
Related business
Manufacturer
Unknown
Mission
Spacecraft
Bus & Motor
Unknown
Mass
Unknown
Launch date (UTC)
1981-06-04 (45 years ago)
Launch vehicle
Unknown
Launch site
Plesetsk Missile And Space Complex (PKMTR)
Object type
Payload
Rocket body
Debris
Shape & HBR
Unknown shape, 0.5 m
Radar Cross Section
Medium (>0.1 m² and <1 m²)

Expand to show TLE details & history
Last TLE update: 8 hours ago

TLE from 8 hours ago
0 COSMOS 1275 DEB
1 12648U 81053C   26119.59605466  .00000282  00000-0  24929-3 0  9999
2 12648  82.9693 243.2750 0012724 310.5844  60.0314 13.81743464250961
Epoch: 2026-04-29T14:18Z
TLE epoch observation values (Epoch: 2026-04-29T14:18:19.122Z)
Latitude
10.60969°
Longitude
172.45743°
Altitude
955.214 km
Speed
7.377 km/s
True Right ascension
16h 18m 22s
True Declination
10° 32' 58"
Sunlit
Object was in full shadow at epoch
Visualization orbit readout
Latitude
Unknown
Longitude
Unknown
Altitude
Unknown
Speed
Unknown
Apparent Right ascension
Unknown
Apparent Declination
Unknown
Sunlit
N/A
Visualization observer readout
Local Sidereal Time
05:44:25
Azimuth
Unknown
Elevation
Unknown
Doppler factor
Unknown
Orbital elements
Apogee altitude
964.178 km
Perigee altitude
945.517 km
Semi-major axis
7,332.985 km
Eccentricity
0.00127
Inclination
82.9693°
RAAN
243.275°
Arg. of periapsis
310.5844°
True anomaly
60.15781°
Mean anomaly
60.0314°
Eccentric anomaly
60.0946°
Mean motion
3.45638 °/min
Orbital period
104.16 mins
BSTAR
0.00024929
Loading maneuver chart data...
Computing Atmospheric mass density...
Loading historical data...
Loading historical data...
Loading historical data...
Loading historical data...
Loading historical data...
Loading historical data...
Loading historical data...

Documentation

Showing up to 5 results
|